FW7782 Weather Reports


time (UTC)temp
C
wind
direction
speed
KPH
gust
KPH
rain 1hr
cm
rain 24hr
cm
rain mn
cm
humidity
%
barometer
mb
20260505041548 15 0 0.0 3.2 0.00 0.05 0.00 88 1011.0
20260505040101 15 281 1.6 3.2 0.00 0.05 0.00 90 1011.2
20260505034548 15 0 0.0 3.2 0.00 0.05 0.00 92 1011.2
20260505033059 15 0 0.0 0.0 0.00 0.05 0.00 93 1011.1
20260505031551 15 0 0.0 0.0 0.00 0.05 0.00 94 1011.1
20260505030055 15 0 0.0 0.0 0.00 0.05 0.00 94 1011.2
20260505024553 15 0 0.0 3.2 0.00 0.05 0.00 93 1011.3
20260505023051 15 323 1.6 4.8 0.00 0.05 0.00 93 1011.1
20260505021550 15 320 1.6 6.4 0.00 0.05 0.00 91 1011.2
20260505020051 15 326 3.2 6.4 0.00 0.05 0.00 89 1011.2
20260505014553 16 11 6.4 12.9 0.00 0.28 0.00 87 1011.2
20260505013051 16 13 9.7 12.9 0.00 0.28 0.00 90 1011.3
20260505011552 16 29 6.4 12.9 0.00 0.28 0.00 92 1011.5
20260505010059 16 34 6.4 9.7 0.00 0.28 0.00 92 1011.6
20260505004549 16 34 1.6 6.4 0.00 0.33 0.00 91 1011.8
20260505003050 17 0 0.0 3.2 0.00 0.33 0.00 92 1011.9
20260505001550 17 0 0.0 3.2 0.00 0.33 0.00 92 1011.8
20260505000100 16 35 3.2 8.0 0.00 0.33 0.00 92 1012.0
20260504234602 17 27 3.2 6.4 0.00 0.33 0.00 90 1012.0
20260504233051 17 87 3.2 9.7 0.00 0.33 0.00 90 1012.0
20260504231554 17 56 1.6 8.0 0.00 0.33 0.00 90 1012.0
20260504230054 17 105 4.8 11.3 0.00 0.33 0.00 89 1012.0
20260504224555 17 65 6.4 11.3 0.00 0.33 0.00 89 1011.9
20260504223056 17 60 6.4 12.9 0.00 0.33 0.00 89 1011.8
20260504221602 17 58 6.4 12.9 0.00 0.33 0.00 89 1011.7
20260504220100 17 31 8.0 12.9 0.00 0.33 0.00 89 1011.7
20260504214550 17 35 4.8 11.3 0.00 0.33 0.33 88 1011.8
20260504213108 18 37 4.8 9.7 0.00 0.33 0.33 87 1011.8
20260504211547 18 55 4.8 8.0 0.00 0.33 0.33 86 1011.6
20260504210058 18 44 6.4 11.3 0.00 0.33 0.33 85 1011.6
20260504204600 18 46 4.8 12.9 0.00 0.33 0.33 85 1011.5
20260504203052 18 25 6.4 11.3 0.00 0.33 0.33 83 1011.4
20260504201553 20 93 1.6 4.8 0.00 0.33 0.33 78 1011.1
20260504200054 20 0 0.0 6.4 0.00 0.33 0.33 78 1010.8
20260504194557 20 64 6.4 9.7 0.00 0.33 0.33 78 1010.8
20260504193103 20 37 1.6 4.8 0.00 0.33 0.33 72 1010.6
20260504191555 20 40 4.8 6.4 0.00 0.33 0.33 72 1010.4
20260504184552 21 147 3.2 12.9 0.00 0.33 0.33 69 1010.1
20260504183102 21 150 8.0 16.1 0.00 0.33 0.33 68 1009.9
20260504181552 22 137 11.3 17.7 0.00 0.33 0.33 66 1009.8
20260504180131 22 166 9.7 14.5 0.00 0.33 0.33 63 1009.5
20260504174555 23 144 11.3 17.7 0.00 0.33 0.33 63 1009.8
20260504173056 23 160 8.0 12.9 0.00 0.33 0.33 62 1009.8
20260504171556 23 145 11.3 22.5 0.00 0.33 0.33 61 1009.7
20260504120108 22 172 9.7 19.3 0.00 0.33 0.33 77 1011.6
20260504100111 20 196 4.8 11.3 0.00 0.33 0.33 85 1012.8
20260504081601 17 0 1.6 6.4 0.00 0.33 0.33 96 1013.0
20260504050110 16 44 8.0 11.3 0.00 0.28 0.28 97 1012.6